Hourly Data Report for April 11, 2017

All times are specified in Local Standard Time (LST). Add 1 hour to adjust for Daylight Saving Time where and when it is observed.

TORONTO CITY
ONTARIO

43°40'00.000" N
79°24'00.000" W
112.50 m
6158355
71508
XTO

Download Data

Hourly Data (April 2017)
Hourly Data Report for April 11, 2017
TIME Temp Definition
°C
Dew Point Definition
°C
Rel Hum Definition
%
Wind Dir Definition
10's deg

Wind Spd Definition
km/h
Visibility Definition
km
Stn Press Definition
kPa
Hmdx Definition


Wind Chill Definition


Weather Definition


00:00 14.4 12.7 90 LegendMM LegendMM   100.04     LegendNANA
01:00 14.0 12.2 89 LegendMM LegendMM   100.05     LegendNANA
02:00 12.5 10.6 89 LegendMM LegendMM   99.97     LegendNANA
03:00 11.4 9.5 88 LegendMM LegendMM   100.07     LegendNANA
04:00 13.0 10.1 83 LegendMM LegendMM   100.07     LegendNANA
05:00 15.3 10.7 74 LegendMM LegendMM   100.08     LegendNANA
06:00 15.1 10.6 75 LegendMM LegendMM   100.16     LegendNANA
07:00 16.0 10.2 68 LegendMM LegendMM   100.27     LegendNANA
08:00 16.6 10.4 67 LegendMM LegendMM   100.35     LegendNANA
09:00 14.9 9.4 70 LegendMM LegendMM   100.37     LegendNANA
10:00
11:00 14.2 8.8 70 LegendMM LegendMM   100.37     LegendNANA
12:00 14.5 9.6 72 LegendMM LegendMM   100.37     LegendNANA
13:00 15.8 10.4 70 LegendMM LegendMM   100.36     LegendNANA
14:00 17.1 11.1 68 LegendMM LegendMM   100.32     LegendNANA
15:00 17.2 11.5 69 LegendMM LegendMM   100.29     LegendNANA
16:00 16.9 12.0 73 LegendMM LegendMM   100.25     LegendNANA
17:00 17.2 12.2 73 LegendMM LegendMM   100.25     LegendNANA
18:00 15.4 10.9 75 LegendMM LegendMM   100.24     LegendNANA
19:00 16.4 11.2 71 LegendMM LegendMM   100.29     LegendNANA
20:00 13.1 7.1 67 LegendMM LegendMM   100.45     LegendNANA
21:00 11.8 6.2 69 LegendMM LegendMM   100.56     LegendNANA
22:00 11.0 5.8 70 LegendMM LegendMM   100.60     LegendNANA
23:00 10.2 4.7 69 LegendMM LegendMM   100.68     LegendNANA

Notes on Data Quality.

Legend

  • E = Estimated
  • M = Missing
  • NA = Not Available
Date modified: